Location: Newark
(41.6500°N, 71.4833°W)
Time: 02:42:35
(UTC+00:00)

A-11 Canister half - Pass Details

Date: 28 January 2020
Orbit: 1517 x 1683 km, 47.2° (Epoch: 19 February)

Event Time Altitude Azimuth Distance (km) Brightness Sun altitude
Rises 05:33:08 0° 265° (W) 4,730 - -65.6°
Reaches altitude 10° 05:36:16 10° 268° (W) 3,728 - -65.3°
Maximum altitude 05:45:36 65° 350° (N) 1,647 - -64.6°
Drops below altitude 10° 05:54:48 10° 72° (ENE) 3,680 - -63.8°
Exits shadow 05:56:22 - 74° (ENE) 4,178 11.5 -63.6°
Sets 05:57:53 0° 76° (ENE) 4,666 11.8 -63.5°
